| time (UTC) | temp F | wind direction | speed MPH | gust MPH | rain 1hr in | rain 24hr in | rain mn in | humidity % | barometer mb |
| 20260903062146 | 69 | 114 | 2.0 | 6.0 | 0.00 | 0.00 | 0.00 | 95 | 1022.0 |
| 20260903061245 | 69 | 122 | 1.0 | 6.0 | 0.00 | 0.00 | 0.00 | 95 | 1022.2 |
| 20260903060346 | 69 | 159 | 1.0 | 3.0 | 0.00 | 0.00 | 0.00 | 95 | 1022.8 |
| 20260903054545 | 69 | 261 | 0.0 | 2.0 | 0.00 | 0.00 | 0.00 | 95 | 1023.2 |
| 20260903053645 | 69 | 0 | 0.0 | 0.0 | 0.00 | 0.00 | 0.00 | 95 | 1023.4 |
| 20260903052746 | 69 | 0 | 0.0 | 0.0 | 0.00 | 0.00 | 0.00 | 95 | 1023.6 |
| 20260903051845 | 69 | 223 | 0.0 | 2.0 | 0.00 | 0.00 | 0.00 | 95 | 1023.7 |
| 20260903050945 | 68 | 225 | 0.0 | 2.0 | 0.00 | 0.00 | 0.00 | 95 | 1023.7 |
| 20260903050046 | 68 | 153 | 0.0 | 2.0 | 0.00 | 0.00 | 0.00 | 95 | 1023.6 |
| 20260903045146 | 68 | 156 | 1.0 | 2.0 | 0.00 | 0.00 | 0.00 | 95 | 1023.7 |
| 20260903044245 | 68 | 182 | 0.0 | 2.0 | 0.00 | 0.00 | 0.00 | 95 | 1023.9 |
| 20260903043346 | 68 | 141 | 0.0 | 2.0 | 0.00 | 0.00 | 0.00 | 95 | 1023.8 |
| 20260903042447 | 68 | 0 | 0.0 | 0.0 | 0.00 | 0.00 | 0.00 | 95 | 1024.1 |
| 20260903040645 | 68 | 127 | 0.0 | 1.0 | 0.00 | 0.00 | 0.00 | 94 | 1024.3 |
| 20260903035746 | 68 | 0 | 0.0 | 0.0 | 0.00 | 0.00 | 0.00 | 94 | 1024.2 |
| 20260903034845 | 67 | 0 | 0.0 | 0.0 | 0.00 | 0.00 | 0.00 | 94 | 1024.1 |
| 20260903033945 | 67 | 101 | 0.0 | 2.0 | 0.00 | 0.00 | 0.00 | 94 | 1023.9 |
| 20260903033045 | 67 | 94 | 1.0 | 4.0 | 0.00 | 0.00 | 0.00 | 94 | 1023.9 |
| 20260903032145 | 67 | 105 | 1.0 | 3.0 | 0.00 | 0.00 | 0.00 | 94 | 1024.1 |
| 20260903031245 | 67 | 106 | 2.0 | 4.0 | 0.00 | 0.00 | 0.00 | 94 | 1024.3 |
| 20260903030345 | 67 | 104 | 3.0 | 6.0 | 0.00 | 0.00 | 0.00 | 94 | 1024.6 |
| 20260903025446 | 67 | 109 | 4.0 | 7.0 | 0.00 | 0.00 | 0.00 | 94 | 1024.6 |
| 20260903024546 | 67 | 105 | 4.0 | 7.0 | 0.00 | 0.00 | 0.00 | 94 | 1024.5 |
| 20260903023645 | 67 | 105 | 3.0 | 7.0 | 0.00 | 0.00 | 0.00 | 94 | 1024.6 |
| 20260903022747 | 67 | 100 | 3.0 | 6.0 | 0.00 | 0.00 | 0.00 | 94 | 1024.5 |
| 20260903021845 | 67 | 95 | 2.0 | 4.0 | 0.00 | 0.00 | 0.00 | 94 | 1024.6 |
| 20260903020946 | 67 | 102 | 2.0 | 4.0 | 0.00 | 0.00 | 0.00 | 94 | 1024.6 |
| 20260903020046 | 67 | 110 | 0.0 | 2.0 | 0.00 | 0.00 | 0.00 | 94 | 1024.8 |
| 20260903015146 | 67 | 104 | 1.0 | 4.0 | 0.00 | 0.00 | 0.00 | 94 | 1025.1 |
| 20260903014245 | 67 | 97 | 2.0 | 4.0 | 0.00 | 0.00 | 0.00 | 94 | 1024.8 |
| 20260903013345 | 67 | 102 | 4.0 | 6.0 | 0.00 | 0.00 | 0.00 | 94 | 1025.0 |
| 20260903012445 | 67 | 98 | 4.0 | 7.0 | 0.00 | 0.00 | 0.00 | 94 | 1025.0 |
| 20260903011545 | 67 | 103 | 3.0 | 5.0 | 0.00 | 0.00 | 0.00 | 94 | 1025.3 |
| 20260903010646 | 67 | 101 | 1.0 | 4.0 | 0.00 | 0.00 | 0.00 | 94 | 1025.5 |
| 20260903005745 | 67 | 0 | 0.0 | 0.0 | 0.00 | 0.00 | 0.00 | 94 | 1026.0 |
| 20260903004845 | 67 | 93 | 2.0 | 4.0 | 0.00 | 0.00 | 0.00 | 94 | 1025.7 |
| 20260903003946 | 67 | 100 | 2.0 | 5.0 | 0.00 | 0.00 | 0.00 | 94 | 1025.3 |
| 20260903003046 | 67 | 100 | 3.0 | 6.0 | 0.00 | 0.00 | 0.00 | 94 | 1025.2 |
| 20260903002146 | 67 | 103 | 4.0 | 7.0 | 0.00 | 0.00 | 0.00 | 94 | 1025.0 |
| 20260903001246 | 67 | 103 | 3.0 | 7.0 | 0.00 | 0.00 | 0.00 | 93 | 1024.6 |
| 20260903000347 | 67 | 91 | 3.0 | 7.0 | 0.00 | 0.00 | 0.00 | 93 | 1024.7 |
| 20260902235446 | 67 | 86 | 4.0 | 7.0 | 0.00 | 0.00 | 0.00 | 94 | 1024.8 |
| 20260902234546 | 67 | 81 | 3.0 | 6.0 | 0.00 | 0.00 | 0.00 | 94 | 1024.8 |
| 20260902232745 | 67 | 90 | 5.0 | 8.0 | 0.00 | 0.00 | 0.00 | 94 | 1024.9 |
| 20260902231845 | 67 | 88 | 4.0 | 7.0 | 0.00 | 0.00 | 0.00 | 93 | 1025.0 |
| 20260902230045 | 67 | 84 | 2.0 | 6.0 | 0.00 | 0.00 | 0.00 | 93 | 1025.8 |
| 20260902225145 | 67 | 94 | 3.0 | 6.0 | 0.00 | 0.00 | 0.00 | 93 | 1025.9 |
| 20260902224245 | 67 | 95 | 3.0 | 8.0 | 0.00 | 0.00 | 0.00 | 93 | 1026.0 |
| 20260902223345 | 67 | 93 | 3.0 | 5.0 | 0.00 | 0.00 | 0.00 | 93 | 1026.1 |
| 20260902222445 | 67 | 82 | 3.0 | 5.0 | 0.00 | 0.00 | 0.00 | 93 | 1026.1 |
| 20260902221545 | 67 | 89 | 2.0 | 4.0 | 0.00 | 0.00 | 0.00 | 93 | 1026.2 |
| 20260902220646 | 66 | 106 | 3.0 | 6.0 | 0.00 | 0.00 | 0.00 | 93 | 1025.9 |
| 20260902215745 | 66 | 103 | 4.0 | 6.0 | 0.00 | 0.00 | 0.00 | 93 | 1026.1 |
| 20260902213946 | 66 | 83 | 2.0 | 6.0 | 0.00 | 0.00 | 0.00 | 93 | 1026.3 |
| 20260902213045 | 66 | 69 | 4.0 | 7.0 | 0.00 | 0.00 | 0.00 | 93 | 1025.9 |
| 20260902212146 | 66 | 80 | 5.0 | 9.0 | 0.00 | 0.00 | 0.00 | 93 | 1025.7 |
| 20260902211246 | 66 | 101 | 5.0 | 12.0 | 0.00 | 0.00 | 0.00 | 93 | 1025.5 |
| 20260902210345 | 66 | 112 | 5.0 | 12.0 | 0.00 | 0.00 | 0.00 | 93 | 1025.4 |
| 20260902205445 | 66 | 107 | 6.0 | 9.0 | 0.00 | 0.00 | 0.00 | 93 | 1025.5 |
| 20260902204546 | 66 | 103 | 5.0 | 10.0 | 0.00 | 0.00 | 0.00 | 93 | 1025.8 |
| 20260902203645 | 66 | 98 | 3.0 | 9.0 | 0.00 | 0.00 | 0.00 | 92 | 1025.9 |
| 20260902202745 | 66 | 106 | 3.0 | 8.0 | 0.00 | 0.00 | 0.00 | 92 | 1026.2 |
| 20260902201846 | 66 | 91 | 4.0 | 8.0 | 0.00 | 0.00 | 0.00 | 91 | 1026.1 |
| 20260902200946 | 67 | 90 | 2.0 | 6.0 | 0.00 | 0.00 | 0.00 | 89 | 1026.3 |
| 20260902195145 | 68 | 61 | 3.0 | 5.0 | 0.00 | 0.00 | 0.00 | 85 | 1026.5 |
| 20260902194245 | 70 | 350 | 5.0 | 8.0 | 0.00 | 0.00 | 0.00 | 79 | 1026.9 |
| 20260902193345 | 71 | 56 | 3.0 | 6.0 | 0.00 | 0.00 | 0.00 | 78 | 1026.4 |
| 20260902192446 | 71 | 94 | 5.0 | 9.0 | 0.00 | 0.00 | 0.00 | 79 | 1025.9 |
| 20260902190645 | 71 | 108 | 6.0 | 11.0 | 0.00 | 0.00 | 0.00 | 76 | 1026.0 |
| 20260902185745 | 71 | 89 | 7.0 | 13.0 | 0.00 | 0.00 | 0.00 | 76 | 1026.2 |
| 20260902184845 | 72 | 106 | 7.0 | 12.0 | 0.00 | 0.00 | 0.00 | 75 | 1026.1 |
| 20260902183945 | 72 | 91 | 7.0 | 13.0 | 0.00 | 0.00 | 0.00 | 74 | 1025.9 |
| 20260902182146 | 72 | 90 | 6.0 | 9.0 | 0.00 | 0.00 | 0.00 | 71 | 1026.2 |
| 20260902181245 | 72 | 93 | 5.0 | 7.0 | 0.00 | 0.00 | 0.00 | 69 | 1026.5 |
| 20260902180345 | 72 | 79 | 5.0 | 10.0 | 0.00 | 0.00 | 0.00 | 67 | 1026.6 |
| 20260902174546 | 72 | 110 | 5.0 | 11.0 | 0.00 | 0.00 | 0.00 | 63 | 1026.8 |
| 20260902172745 | 72 | 111 | 6.0 | 11.0 | 0.00 | 0.00 | 0.00 | 67 | 1026.8 |
| 20260902170045 | 72 | 114 | 5.0 | 12.0 | 0.00 | 0.00 | 0.00 | 74 | 1026.5 |
| 20260902165146 | 72 | 115 | 5.0 | 10.0 | 0.00 | 0.00 | 0.00 | 76 | 1026.4 |
| 20260902164245 | 72 | 98 | 5.0 | 8.0 | 0.00 | 0.00 | 0.00 | 77 | 1026.4 |
| 20260902163345 | 72 | 101 | 4.0 | 8.0 | 0.00 | 0.00 | 0.00 | 77 | 1026.5 |
| 20260902161545 | 72 | 98 | 4.0 | 9.0 | 0.00 | 0.00 | 0.00 | 79 | 1026.7 |
| 20260902160645 | 72 | 85 | 6.0 | 11.0 | 0.00 | 0.00 | 0.00 | 78 | 1026.7 |
| 20260902155745 | 72 | 98 | 4.0 | 6.0 | 0.00 | 0.00 | 0.00 | 80 | 1026.7 |
| 20260902154846 | 72 | 78 | 6.0 | 10.0 | 0.00 | 0.00 | 0.00 | 79 | 1026.9 |
| 20260902153045 | 72 | 74 | 5.0 | 10.0 | 0.00 | 0.00 | 0.00 | 81 | 1026.8 |
| 20260902152146 | 72 | 80 | 5.0 | 10.0 | 0.00 | 0.00 | 0.00 | 80 | 1027.0 |
| 20260902150345 | 71 | 69 | 3.0 | 7.0 | 0.00 | 0.00 | 0.00 | 81 | 1027.1 |
| 20260902145445 | 71 | 69 | 5.0 | 9.0 | 0.00 | 0.00 | 0.00 | 80 | 1027.2 |
| 20260902144545 | 71 | 65 | 5.0 | 10.0 | 0.00 | 0.00 | 0.00 | 81 | 1026.8 |
| 20260902143645 | 70 | 70 | 5.0 | 9.0 | 0.00 | 0.00 | 0.00 | 82 | 1026.7 |
| 20260902142746 | 70 | 76 | 5.0 | 10.0 | 0.00 | 0.00 | 0.00 | 82 | 1026.9 |
| 20260902140046 | 69 | 65 | 4.0 | 8.0 | 0.00 | 0.00 | 0.00 | 83 | 1026.9 |
| 20260902134245 | 68 | 85 | 5.0 | 9.0 | 0.00 | 0.00 | 0.00 | 84 | 1026.6 |
| 20260902133345 | 68 | 66 | 4.0 | 7.0 | 0.00 | 0.00 | 0.00 | 85 | 1026.6 |
| 20260902132446 | 68 | 68 | 4.0 | 9.0 | 0.00 | 0.00 | 0.00 | 85 | 1026.7 |
| 20260902131545 | 67 | 66 | 5.0 | 8.0 | 0.00 | 0.00 | 0.00 | 85 | 1026.7 |
| 20260902125746 | 67 | 67 | 5.0 | 12.0 | 0.00 | 0.00 | 0.00 | 85 | 1026.5 |
| 20260902124846 | 67 | 63 | 4.0 | 10.0 | 0.00 | 0.00 | 0.00 | 85 | 1026.4 |
| 20260902123945 | 67 | 69 | 6.0 | 13.0 | 0.00 | 0.00 | 0.00 | 85 | 1026.3 |
| 20260902123046 | 67 | 64 | 6.0 | 11.0 | 0.00 | 0.00 | 0.00 | 85 | 1026.3 |
| 20260902122145 | 67 | 67 | 5.0 | 11.0 | 0.00 | 0.00 | 0.00 | 86 | 1026.3 |
| 20260902121245 | 67 | 69 | 5.0 | 7.0 | 0.00 | 0.00 | 0.00 | 86 | 1026.4 |
| 20260902120346 | 66 | 70 | 5.0 | 9.0 | 0.00 | 0.00 | 0.00 | 86 | 1026.4 |
| 20260902115445 | 66 | 69 | 5.0 | 9.0 | 0.00 | 0.00 | 0.00 | 86 | 1026.5 |
| 20260902113645 | 66 | 62 | 5.0 | 9.0 | 0.00 | 0.00 | 0.00 | 86 | 1026.5 |
| 20260902111845 | 66 | 61 | 3.0 | 6.0 | 0.00 | 0.00 | 0.00 | 86 | 1026.3 |
| 20260902110947 | 66 | 64 | 4.0 | 7.0 | 0.00 | 0.00 | 0.00 | 86 | 1026.4 |
| 20260902105146 | 65 | 67 | 2.0 | 8.0 | 0.00 | 0.00 | 0.00 | 86 | 1026.3 |
| 20260902104245 | 65 | 70 | 3.0 | 6.0 | 0.00 | 0.00 | 0.00 | 86 | 1026.1 |
| 20260902103345 | 65 | 65 | 4.0 | 7.0 | 0.00 | 0.00 | 0.00 | 86 | 1026.1 |
| 20260902102445 | 65 | 60 | 4.0 | 7.0 | 0.00 | 0.00 | 0.00 | 87 | 1026.0 |
| 20260902095746 | 65 | 69 | 2.0 | 6.0 | 0.00 | 0.00 | 0.00 | 89 | 1025.8 |
| 20260902093945 | 65 | 58 | 3.0 | 6.0 | 0.00 | 0.00 | 0.00 | 89 | 1025.7 |
| 20260902093045 | 65 | 67 | 3.0 | 8.0 | 0.00 | 0.00 | 0.00 | 89 | 1025.5 |
| 20260902092145 | 65 | 64 | 4.0 | 9.0 | 0.00 | 0.00 | 0.00 | 89 | 1025.4 |
| 20260902091246 | 65 | 77 | 5.0 | 8.0 | 0.00 | 0.00 | 0.00 | 90 | 1025.2 |
| 20260902090345 | 65 | 66 | 4.0 | 9.0 | 0.00 | 0.00 | 0.00 | 91 | 1025.2 |
| 20260902085445 | 65 | 68 | 5.0 | 12.0 | 0.00 | 0.00 | 0.00 | 92 | 1025.3 |
| 20260902084545 | 64 | 71 | 5.0 | 9.0 | 0.00 | 0.00 | 0.00 | 92 | 1025.2 |
| 20260902082745 | 64 | 64 | 5.0 | 12.0 | 0.00 | 0.00 | 0.00 | 93 | 1025.3 |
| 20260902081845 | 65 | 63 | 5.0 | 12.0 | 0.00 | 0.00 | 0.00 | 93 | 1025.2 |
| 20260902080945 | 65 | 69 | 5.0 | 11.0 | 0.00 | 0.00 | 0.00 | 93 | 1025.1 |
| 20260902080045 | 65 | 71 | 6.0 | 11.0 | 0.00 | 0.00 | 0.00 | 93 | 1024.9 |
| 20260902075145 | 65 | 72 | 7.0 | 12.0 | 0.00 | 0.00 | 0.00 | 94 | 1024.9 |
| 20260902073345 | 65 | 58 | 6.0 | 11.0 | 0.00 | 0.00 | 0.00 | 94 | 1024.9 |
| 20260902072446 | 65 | 56 | 6.0 | 12.0 | 0.00 | 0.00 | 0.00 | 94 | 1024.8 |
| 20260902071545 | 66 | 56 | 3.0 | 8.0 | 0.00 | 0.00 | 0.00 | 94 | 1024.6 |
| 20260902065745 | 67 | 62 | 4.0 | 7.0 | 0.00 | 0.00 | 0.00 | 93 | 1024.6 |
| 20260902064845 | 67 | 57 | 3.0 | 8.0 | 0.00 | 0.00 | 0.00 | 93 | 1024.6 |
| 20260902063946 | 67 | 42 | 2.0 | 7.0 | 0.00 | 0.00 | 0.00 | 92 | 1024.7 |
| 20260902063045 | 67 | 47 | 3.0 | 6.0 | 0.00 | 0.00 | 0.00 | 92 | 1024.7 |